Regional Weather Roundup
Issued by NWS

Home | Current Version | Previous Version | Text Only | Print | Product List | Glossary Off
Versions: 1 2 3 4 5 6 7 8 9 10 11 12 13 14 15 16 17 18 19 20 21 22 23 24 25 26 27 28 29 30 31 32 33 34 35 36 37 38 39 40 41 42 43 44 45 46 47 48 49 50

000
ASUS43 KBIS 302002
RWRND

NORTH DAKOTA REGIONAL WEATHER ROUNDUP
NATIONAL WEATHER SERVICE BISMARCK ND
300 PM CDT TUE AUG 30 2016

NOTE: "FAIR" INDICATES FEW OR NO CLOUDS BELOW 12,000 FEET WITH NO
SIGNIFICANT WEATHER AND/OR OBSTRUCTIONS TO VISIBILITY.


NDZ001>003-009>011-017-302100-
NORTHWEST NORTH DAKOTA

CITY           SKY/WX    TMP DP  RH WIND       PRES   REMARKS
WILLISTON      PTSUNNY   84  50  30 SE10      30.15S
MINOT          SUNNY     83  44  25 SE9       30.21F
MINOT AFB      SUNNY     83  43  24 SE8       30.19F
$$

NDZ018>021-031>035-040>046-302100-
SOUTHWEST NORTH DAKOTA

CITY           SKY/WX    TMP DP  RH WIND       PRES   REMARKS
BISMARCK       MOSUNNY   83  47  28 S12       30.22F
DICKINSON      CLOUDY    81  53  37 SE21G30   30.16F
GARRISON         N/A     84  48  28 S9        30.21F
HETTINGER ARPT MOSUNNY   81  60  48 E9        30.22F
$$

NDZ004>008-012>016-024-026-027-054-302100-
NORTHEAST NORTH DAKOTA

CITY           SKY/WX    TMP DP  RH WIND       PRES   REMARKS
GRAND FORKS    MOSUNNY   79  51  37 NW9       30.21F
GRND FRKS AFB  SUNNY     78  52  39 N8        30.22F
DEVILS LAKE    SUNNY     76  50  40 W6        30.25F
$$

NDZ022-023-025-028>030-036>039-047>053-302100-
SOUTHEAST NORTH DAKOTA

CITY           SKY/WX    TMP DP  RH WIND       PRES   REMARKS
FARGO          SUNNY     80  52  37 N7        30.21F
JAMESTOWN      SUNNY     80  51  36 VRB3      30.23F
$$




USA.gov is the U.S. government's official web portal to all federal, state and local government web resources and services.